Location: Devore Heights
(34.2372°N, 117.4156°W)
Time: 07:48:12
(UTC+00:00)

Vanguard 1 Rocket - Pass Details

Date: 13 September 2024
Orbit: 650 x 4218 km, 34.3° (Epoch: 09 October)

Event Time Altitude Azimuth Distance (km) Brightness Sun altitude
Rises 17:22:28 0° 288° (WNW) 7,875 11.8 44.7°
Reaches altitude 10° 17:27:32 10° 285° (WNW) 7,108 11.6 45.6°
Maximum altitude 17:52:53 63° 213° (SSW) 4,343 11.7 49.6°
Drops below altitude 10° 18:13:05 10° 137° (SE) 5,843 12.3 52.4°
Sets 18:16:47 0° 133° (SE) 6,479 12.3 52.9°
